Regional Weather Roundup
Issued by NWS Northern Indiana

Home | Current Version | Previous Version | Graphics & Text | Print | Product List | Glossary On
Versions: 1 2 3 4 5 6 7 8 9 10 11 12 13 14 15 16 17 18 19 20 21 22 23 24 25 26 27 28 29 30 31 32 33 34 35 36 37 38 39 40 41 42 43 44 45 46 47 48 49 50
000
ASUS43 KIWX 190110
RWRIWX

KIWX WEATHER ROUNDUP
NATIONAL WEATHER SERVICE NORTHERN INDIANA
900 PM EDT FRI APR 18 2014

NOTE: "FAIR" INDICATES FEW OR NO CLOUDS BELOW 12,000 FEET WITH NO
SIGNIFICANT WEATHER AND/OR OBSTRUCTIONS TO VISIBILITY.

* THESE STATIONS ARE NOT UNDER NWS QUALITY CONTROL. THEY ALSO MAY NOT
  REPORT WEATHER SUCH AS PRECIPITATION OR FOG.

INZ001>027-190200-
NORTHERN INDIANA

CITY           SKY/WX    TMP DP  RH WIND       PRES   REMARKS
GARY*          CLEAR     39  32  75 NE18      30.35S
VALPARAISO     CLEAR     38  30  73 N7        30.33R
MICHIGAN CITY* CLEAR     36  28  75 NE7       30.34F
LAPORTE*       CLEAR     39  29  67 N9G22     30.33R
SOUTH BEND     CLEAR     42  28  57 N10       30.32S
ELKHART*       CLEAR     45  32  61 N10       30.31R
GOSHEN         CLEAR     48  36  63 N14       30.29R
MONTICELLO*    CLEAR     51  37  58 N12       30.27R
LOGANSPORT*    CLEAR     52  34  50 N14       30.28R
ROCHESTER*     CLEAR     50  37  62 N12       30.29R
WARSAW*        CLEAR     48  36  61 N10G18    30.28R
ANGOLA*        CLEAR     54  34  47 NW10      30.26R
FORT WAYNE     CLEAR     55  31  39 NW7       30.25R
HUNTINGTON*    FAIR      55  33  42 N6        30.25R
PERU/GRISSOM   CLEAR     55  37  51 N10       30.26R
MARION*        CLEAR     58  34  40 N8        30.25R

$$
INZ028>050-190200-
CENTRAL INDIANA

CITY           SKY/WX    TMP DP  RH WIND       PRES   REMARKS
LAFAYETTE      CLEAR     54  34  46 N15G21    30.26R
KOKOMO*          N/A    N/A N/A N/A MISG        N/A
MUNCIE*        CLEAR     58  39  49 NW5       30.23R
INDIANAPOLIS   PTCLDY    60  38  43 N7        30.22R

$$
MIZ043>046-050>051-056>058-064>065-071>073-077>080-190200-
SOUTHWEST LOWER MICHIGAN

CITY           SKY/WX    TMP DP  RH WIND       PRES   REMARKS
BATTLE CREEK   CLEAR     48  31  51 NW10      30.30R
BENTON HARBOR  CLEAR     35  26  69 N8        30.34S WCI  29
COLDWATER*     CLEAR     49  32  51 NW8       30.28R
HILLSDALE*     CLEAR     54  31  42 NW10      30.26R
HOLLAND        CLEAR     40  29  64 NW7       30.34R
GRAND RAPIDS   CLEAR     48  31  51 W12       30.31R
KALAMAZOO      CLEAR     46  30  53 NW9       30.30R
STURGIS*       CLEAR     48  36  61 NW9       30.29R
THREE RIVERS*  FAIR      47  33  57 NW6       30.30S

$$
OHZ001>008-015>018-024>025-190200-
NORTHWEST OHIO

CITY           SKY/WX    TMP DP  RH WIND       PRES   REMARKS
WAUSEON*       FAIR      55  34  44 NW8       30.23S
DEFIANCE       CLEAR     58  35  42 NW12      30.24R
FINDLAY        CLEAR     60  39  45 NW5       30.21R
TOLEDO EXPRESS CLEAR     52  42  69 E8        30.24R
TOLEDO METCALF CLEAR     51  41  68 NE7       30.25R
LIMA           CLEAR     58  39  49 NW7       30.22R

$$
&&



USA.gov is the U.S. government's official web portal to all federal, state and local government web resources and services.